TimeCDT,TemperatureF,Dew PointF,Humidity,Sea Level PressureIn,VisibilityMPH,Wind Direction,Wind SpeedMPH,Gust SpeedMPH,PrecipitationIn,Events,Conditions,WindDirDegrees,DateUTC
12:15 AM,74.1,72.5,95,30.03,7.0,Calm,Calm,-,N/A,,Overcast,0,2013-06-13 05:15:00
12:35 AM,73.6,72.1,95,30.03,5.0,Calm,Calm,-,N/A,,Overcast,0,2013-06-13 05:35:00
12:55 AM,73.0,71.6,95,30.03,5.0,Calm,Calm,-,N/A,,Overcast,0,2013-06-13 05:55:00
1:15 AM,72.5,71.1,95,30.03,4.0,Calm,Calm,-,N/A,,Overcast,0,2013-06-13 06:15:00
1:35 AM,72.3,70.9,95,30.02,5.0,Calm,Calm,-,N/A,,Overcast,0,2013-06-13 06:35:00
1:55 AM,72.1,70.7,95,30.03,3.0,Calm,Calm,-,N/A,,Overcast,0,2013-06-13 06:55:00
2:15 AM,72.1,70.9,96,30.02,5.0,Calm,Calm,-,N/A,,Overcast,0,2013-06-13 07:15:00
2:35 AM,71.6,70.2,95,30.02,4.0,Calm,Calm,-,N/A,,Overcast,0,2013-06-13 07:35:00
2:55 AM,71.2,70.0,96,30.02,5.0,Calm,Calm,-,N/A,,Overcast,0,2013-06-13 07:55:00
3:15 AM,71.6,70.2,95,30.02,5.0,Calm,Calm,-,N/A,,Overcast,0,2013-06-13 08:15:00
3:35 AM,70.9,69.6,96,30.02,5.0,Calm,Calm,-,N/A,,Overcast,0,2013-06-13 08:35:00
3:55 AM,70.0,68.7,96,30.02,1.0,Calm,Calm,-,N/A,,Overcast,0,2013-06-13 08:55:00
4:15 AM,70.5,69.3,96,30.02,4.0,Calm,Calm,-,N/A,,Overcast,0,2013-06-13 09:15:00
4:35 AM,70.7,69.4,96,30.02,3.0,Calm,Calm,-,N/A,,Overcast,0,2013-06-13 09:35:00
4:55 AM,70.3,69.1,96,30.02,3.0,Calm,Calm,-,N/A,,Overcast,0,2013-06-13 09:55:00
5:15 AM,70.3,69.1,96,30.03,1.5,Calm,Calm,-,N/A,,Overcast,0,2013-06-13 10:15:00
5:35 AM,69.8,68.5,96,30.03,0.8,Calm,Calm,-,N/A,,Overcast,0,2013-06-13 10:35:00
5:55 AM,69.8,68.5,96,30.04,0.8,Calm,Calm,-,N/A,,Overcast,0,2013-06-13 10:55:00
6:15 AM,69.8,68.7,96,30.04,0.8,Calm,Calm,-,N/A,,Overcast,0,2013-06-13 11:15:00
6:35 AM,69.8,68.5,96,30.05,0.2,Calm,Calm,-,N/A,Fog,Fog,0,2013-06-13 11:35:00
6:55 AM,71.2,70.2,96,30.06,0.2,Calm,Calm,-,N/A,Fog,Fog,0,2013-06-13 11:55:00
7:15 AM,72.7,71.6,96,30.06,0.2,Calm,Calm,-,N/A,Fog,Fog,0,2013-06-13 12:15:00
7:35 AM,-9999,-9999,N/A,30.06,0.8,Calm,Calm,-,N/A,,Overcast,0,2013-06-13 12:35:00
7:55 AM,-9999,-9999,N/A,30.06,5.0,Calm,Calm,-,N/A,,Haze,0,2013-06-13 12:55:00
8:15 AM,78.1,75.4,91,30.07,10.0,West,3.5,-,N/A,,Overcast,280,2013-06-13 13:15:00
8:35 AM,79.7,75.2,86,30.07,10.0,WSW,5.8,-,N/A,,Overcast,250,2013-06-13 13:35:00
8:55 AM,81.1,75.6,83,30.07,10.0,WSW,5.8,-,N/A,,Overcast,240,2013-06-13 13:55:00
9:15 AM,82.4,75.7,80,30.07,10.0,West,4.6,-,N/A,,Mostly Cloudy,260,2013-06-13 14:15:00
9:35 AM,83.7,75.7,77,30.07,10.0,West,5.8,-,N/A,,Mostly Cloudy,270,2013-06-13 14:35:00
9:55 AM,84.0,75.0,74,30.07,10.0,West,4.6,-,N/A,,Mostly Cloudy,260,2013-06-13 14:55:00
10:15 AM,85.6,74.3,69,30.06,10.0,WSW,8.1,-,N/A,,Overcast,250,2013-06-13 15:15:00
10:35 AM,85.5,74.3,69,30.06,10.0,West,5.8,-,N/A,,Overcast,270,2013-06-13 15:35:00
10:55 AM,86.2,73.8,66,30.06,10.0,West,5.8,-,N/A,,Overcast,280,2013-06-13 15:55:00
11:15 AM,87.4,73.6,63,30.06,10.0,WSW,8.1,-,N/A,,Overcast,250,2013-06-13 16:15:00
11:35 AM,88.3,73.8,62,30.06,10.0,WSW,6.9,-,N/A,,Mostly Cloudy,240,2013-06-13 16:35:00
11:55 AM,88.9,73.6,60,30.05,10.0,WSW,6.9,-,N/A,,Overcast,250,2013-06-13 16:55:00
12:15 PM,88.5,72.7,59,30.05,10.0,West,4.6,-,N/A,,Overcast,270,2013-06-13 17:15:00
12:35 PM,89.8,72.5,57,30.04,10.0,West,4.6,-,N/A,,Overcast,280,2013-06-13 17:35:00
12:55 PM,90.0,73.4,58,30.03,10.0,West,5.8,-,N/A,,Overcast,260,2013-06-13 17:55:00
1:15 PM,90.5,72.3,55,30.03,10.0,SW,4.6,-,N/A,,Overcast,230,2013-06-13 18:15:00
1:35 PM,89.8,71.8,55,30.02,10.0,WSW,8.1,-,N/A,,Mostly Cloudy,250,2013-06-13 18:35:00
1:55 PM,90.9,72.0,54,30.01,10.0,WNW,6.9,-,N/A,,Overcast,290,2013-06-13 18:55:00
2:15 PM,91.4,71.4,52,30.00,10.0,WNW,5.8,-,N/A,,Overcast,290,2013-06-13 19:15:00
2:35 PM,91.8,72.3,53,29.99,10.0,West,5.8,-,N/A,,Overcast,270,2013-06-13 19:35:00
2:55 PM,91.8,69.6,48,29.99,10.0,WSW,5.8,-,N/A,,Overcast,240,2013-06-13 19:55:00
3:15 PM,91.2,70.7,51,29.98,10.0,West,4.6,-,N/A,,Mostly Cloudy,270,2013-06-13 20:15:00
3:35 PM,92.1,72.1,52,29.96,10.0,WNW,4.6,-,N/A,,Overcast,290,2013-06-13 20:35:00
3:55 PM,92.5,71.6,50,29.96,10.0,West,5.8,-,N/A,,Overcast,270,2013-06-13 20:55:00
4:15 PM,92.5,72.1,51,29.95,10.0,West,4.6,-,N/A,,Overcast,270,2013-06-13 21:15:00
4:35 PM,92.3,71.4,50,29.95,10.0,Calm,Calm,-,N/A,,Overcast,0,2013-06-13 21:35:00
4:55 PM,93.2,72.5,51,29.94,10.0,West,4.6,-,N/A,,Overcast,270,2013-06-13 21:55:00
5:15 PM,92.5,71.6,50,29.94,10.0,Calm,Calm,-,N/A,,Mostly Cloudy,0,2013-06-13 22:15:00
5:35 PM,90.7,71.8,54,29.93,10.0,WSW,3.5,-,N/A,,Scattered Clouds,240,2013-06-13 22:35:00
5:55 PM,92.1,72.1,52,29.92,10.0,West,3.5,-,N/A,,Mostly Cloudy,260,2013-06-13 22:55:00
6:15 PM,91.4,72.1,53,29.92,10.0,West,3.5,-,N/A,,Scattered Clouds,260,2013-06-13 23:15:00
6:35 PM,90.9,72.9,55,29.91,10.0,Calm,Calm,-,N/A,,Scattered Clouds,0,2013-06-13 23:35:00
6:55 PM,90.0,73.8,59,29.91,10.0,Calm,Calm,-,N/A,,Scattered Clouds,0,2013-06-13 23:55:00
7:15 PM,86.9,77.7,74,29.91,10.0,Calm,Calm,-,N/A,,Scattered Clouds,0,2013-06-14 00:15:00
7:35 PM,85.1,77.5,78,29.91,10.0,Calm,Calm,-,N/A,,Clear,0,2013-06-14 00:35:00
7:55 PM,83.5,78.3,84,29.91,10.0,Calm,Calm,-,N/A,,Clear,0,2013-06-14 00:55:00
8:15 PM,82.4,77.7,86,29.91,10.0,Calm,Calm,-,N/A,,Clear,0,2013-06-14 01:15:00
8:35 PM,80.1,77.7,93,29.91,10.0,Calm,Calm,-,N/A,,Clear,0,2013-06-14 01:35:00
8:55 PM,79.7,77.5,93,29.92,10.0,Calm,Calm,-,N/A,,Clear,0,2013-06-14 01:55:00
9:15 PM,78.8,77.0,94,29.93,7.0,Calm,Calm,-,N/A,,Clear,0,2013-06-14 02:15:00
9:35 PM,78.1,76.5,95,29.93,7.0,Calm,Calm,-,N/A,,Clear,0,2013-06-14 02:35:00
9:55 PM,77.5,76.1,95,29.94,5.0,Calm,Calm,-,N/A,,Clear,0,2013-06-14 02:55:00
10:15 PM,77.2,75.7,95,29.94,5.0,Calm,Calm,-,N/A,,Clear,0,2013-06-14 03:15:00
10:35 PM,76.5,75.0,95,29.94,7.0,Calm,Calm,-,N/A,,Clear,0,2013-06-14 03:35:00
10:55 PM,76.1,74.3,94,29.94,7.0,Calm,Calm,-,N/A,,Clear,0,2013-06-14 03:55:00
11:15 PM,75.4,73.8,95,29.94,7.0,Calm,Calm,-,N/A,,Clear,0,2013-06-14 04:15:00
11:35 PM,74.8,73.4,95,29.94,7.0,Calm,Calm,-,N/A,,Clear,0,2013-06-14 04:35:00
11:55 PM,76.6,74.3,92,29.94,10.0,SW,3.5,-,N/A,,Clear,220,2013-06-14 04:55:00